STARLINK-1246, 45235

Orbit data source: Space-Track

STARLINK-1246, 45235 is a payload satellite owned by SpaceX/Seattle (US) in LEO that was launched on Mon, 17 Feb 2020 UTC via an FALCON 9 launch vehicle from the Air Force Eastern Test Range (AFETR). Payload-class satellites include a variety of spacecraft equipped with specific instruments for various scientific and technological missions. These include communications satellites like Starlink; space stations such as the ISS; scientific satellites like the Hubble; Earth observation satellites from companies like Planet Labs, Umbra, and HawkEye 360; GPS; miniature CubeSats for education and research; and military/defense satellites.

Loading next visibility...
Identifier
45235, 2020-012BK
Orbit
LEO
Country
Flag of USUS
Related business
Manufacturer
SpaceX/Seattle
Mission
Operational Commercial Communications
Bus & Motor
STARLINK, Unknown motor
Mass
260 kg wet, ~248 kg dry
Launch date (UTC)
2020-02-17 (6 years ago)
Launch vehicle
FALCON 9
Launch site
Air Force Eastern Test Range (AFETR)
Object type
Payload
Rocket body
Debris
Shape & HBR
Box + 1 Pan, 10.1 m
Radar Cross Section
13.562 m², Large (>1 m²)

Expand to show TLE details & history
Last TLE update: 6 hours ago

TLE from 6 hours ago
0 STARLINK-1246
1 45235U 20012BK  25288.54345351  .00012294  00000-0  84303-3 0  9998
2 45235  53.0547 338.2050 0001361 105.7370 254.3769 15.06390304312980
Epoch: 2025-10-15T13:02Z
TLE epoch observation values (Epoch: 2025-10-15T13:02:34.383Z)
Latitude
-0.00002°
Longitude
118.2457°
Altitude
548.374 km
Speed
7.589 km/s
True Right ascension
22h 32m 49s
True Declination
0° 00' 00"
Sunlit
Object was in full shadow at epoch
Visualization orbit readout
Latitude
Unknown
Longitude
Unknown
Altitude
Unknown
Speed
Unknown
Apparent Right ascension
Unknown
Apparent Declination
Unknown
Sunlit
N/A
Visualization observer readout
Local Sidereal Time
13:55:35
Azimuth
Unknown
Elevation
Unknown
Doppler factor
Unknown
Orbital elements
Apogee altitude
548.455 km
Perigee altitude
546.569 km
Semi-major axis
6,925.649 km
Eccentricity
0.00014
Inclination
53.0547°
RAAN
338.205°
Arg. of periapsis
105.737°
True anomaly
254.36188°
Mean anomaly
254.3769°
Eccentric anomaly
254.36939°
Mean motion
3.76576 °/min
Orbital period
95.6 mins
BSTAR
0.00084303
Loading maneuver chart data...
Computing Atmospheric mass density...
Loading historical data...
Loading historical data...
Loading historical data...
Loading historical data...
Loading historical data...
Loading historical data...
Loading historical data...

Documentation

Showing up to 5 results
|